DW5288 Weather Reports


Display with metric or nautical units.
time (UTC)temp
F
wind
direction
speed
MPH
gust
MPH
rain 1hr
in
rain 24hr
in
rain mn
in
humidity
%
barometer
mb
20260906201536 92 181 20.0 29.0 0.00 0.00 0.00 44 1003.9
20260906200019 92 160 20.0 29.0 0.00 0.00 0.00 44 1003.9
20260906194514 91 150 20.0 29.0 0.00 0.00 0.00 45 1004.2
20260906193020 90 174 17.0 27.0 0.00 0.00 0.00 49 1004.3
20260906191507 90 145 21.0 30.0 0.00 0.00 0.00 49 1004.5
20260906190005 90 177 17.0 28.0 0.00 0.00 0.00 49 1004.8
20260906184504 89 157 19.0 25.0 0.00 0.00 0.00 49 1004.8
20260906183102 89 158 14.0 22.0 0.00 0.00 0.00 51 1005.0
20260906181559 88 153 20.0 28.0 0.00 0.00 0.00 51 1005.4
20260906180115 87 136 17.0 27.0 0.00 0.00 0.00 53 1005.8
20260906174558 86 154 19.0 28.0 0.00 0.00 0.00 56 1006.1
20260906173047 85 123 18.0 28.0 0.00 0.00 0.00 56 1006.6
20260906171543 84 144 17.0 28.0 0.00 0.00 0.00 58 1006.6
20260906170038 82 137 20.0 27.0 0.00 0.00 0.00 64 1006.8
20260906164536 80 126 20.0 27.0 0.00 0.00 0.00 64 1006.8
20260906163033 78 119 19.0 27.0 0.00 0.00 0.00 68 1006.8
20260906161532 77 143 17.0 24.0 0.00 0.00 0.00 71 1006.5
20260906160035 77 127 15.0 26.0 0.00 0.00 0.00 73 1006.4
20260906154534 80 131 13.0 21.0 0.00 0.00 0.00 68 1007.1
20260906153035 80 88 12.0 18.0 0.00 0.00 0.00 67 1007.2
20260906151531 79 110 12.0 18.0 0.00 0.00 0.00 70 1007.1
20260906150025 77 104 9.0 15.0 0.00 0.00 0.00 72 1006.7
20260906144521 76 86 10.0 14.0 0.00 0.00 0.00 73 1006.8
20260906143027 76 81 11.0 15.0 0.00 0.00 0.00 73 1006.7
20260906141516 75 103 7.0 9.0 0.00 0.00 0.00 75 1006.3
20260906140020 75 154 5.0 9.0 0.00 0.00 0.00 76 1005.9
20260906134511 74 148 4.0 9.0 0.00 0.00 0.00 77 1005.6
20260906133021 73 158 7.0 11.0 0.00 0.00 0.00 78 1005.5
20260906131509 72 136 8.0 11.0 0.00 0.00 0.00 80 1005.4
20260906130003 71 135 6.0 8.0 0.00 0.00 0.00 80 1005.3
20260906124558 71 138 6.0 7.0 0.00 0.00 0.00 79 1005.1
20260906123059 71 125 4.0 9.0 0.00 0.00 0.00 79 1004.9
20260906121555 71 140 6.0 8.0 0.00 0.00 0.00 78 1004.8
20260906120057 72 156 6.0 10.0 0.00 0.00 0.00 78 1004.6
20260906114551 72 144 7.0 9.0 0.00 0.00 0.00 78 1004.6
20260906113049 72 143 6.0 9.0 0.00 0.00 0.00 78 1004.5
20260906111652 72 152 5.0 9.0 0.00 0.00 0.00 77 1004.4
20260906110053 72 135 6.0 10.0 0.00 0.00 0.00 77 1004.3
20260906104546 73 129 5.0 8.0 0.00 0.00 0.00 76 1004.2
20260906103100 73 124 3.0 7.0 0.00 0.00 0.00 76 1004.1
20260906101544 73 137 4.0 9.0 0.00 0.00 0.00 75 1004.0
20260906100043 73 139 7.0 10.0 0.00 0.00 0.00 75 1004.0
20260906094543 73 154 9.0 12.0 0.00 0.00 0.00 75 1003.9
20260906093041 73 143 7.0 12.0 0.00 0.00 0.00 76 1003.8
20260906091540 73 138 9.0 13.0 0.00 0.00 0.00 76 1003.9
20260906090057 73 133 9.0 13.0 0.00 0.00 0.00 76 1003.8
20260906084540 73 144 9.0 12.0 0.00 0.00 0.00 75 1003.8
20260906083039 74 144 8.0 12.0 0.00 0.00 0.00 74 1004.0
20260906081536 74 143 9.0 14.0 0.00 0.00 0.00 74 1004.0
20260906080035 74 154 9.0 11.0 0.00 0.00 0.00 73 1004.2
20260906074533 74 150 7.0 10.0 0.00 0.00 0.00 71 1004.3
20260906073030 75 159 9.0 12.0 0.00 0.00 0.00 69 1004.3
20260906071528 75 177 9.0 13.0 0.00 0.00 0.00 67 1004.3
20260906070035 76 170 9.0 14.0 0.00 0.00 0.00 66 1004.3
20260906064523 76 158 8.0 12.0 0.00 0.00 0.00 64 1004.6
20260906063038 77 175 8.0 12.0 0.00 0.00 0.00 64 1004.5
20260906061519 77 189 6.0 10.0 0.00 0.00 0.00 63 1004.3
20260906060017 77 222 9.0 15.0 0.00 0.00 0.00 63 1004.3
20260906054514 78 212 6.0 9.0 0.00 0.02 0.00 65 1004.4
20260906053011 78 200 8.0 12.0 0.00 0.02 0.00 65 1004.2
20260906051507 78 202 7.0 14.0 0.00 0.02 0.00 67 1003.7
20260906050005 78 162 4.0 8.0 0.00 0.02 0.00 68 1003.8
20260906044503 79 180 3.0 5.0 0.00 0.04 0.02 68 1003.7
20260906043002 79 177 3.0 7.0 0.00 0.04 0.02 68 1003.5
20260906041502 80 131 5.0 8.0 0.00 0.04 0.02 67 1003.6
20260906040004 80 135 7.0 11.0 0.00 0.04 0.02 66 1003.8
20260906034501 81 144 9.0 12.0 0.00 0.04 0.02 65 1003.8
20260906033102 81 156 9.0 13.0 0.00 0.04 0.02 64 1003.9
20260906031601 82 149 11.0 15.0 0.00 0.04 0.02 63 1003.8
20260906030100 82 176 12.0 20.0 0.00 0.04 0.02 63 1003.9
20260906024559 82 136 4.0 7.0 0.00 0.04 0.02 62 1004.3
20260906023057 83 155 5.0 8.0 0.00 0.04 0.02 60 1003.5
20260906021558 83 149 7.0 10.0 0.00 0.04 0.02 58 1003.1
20260906020105 84 128 8.0 10.0 0.00 0.04 0.02 57 1002.7
20260906014556 85 139 8.0 11.0 0.00 0.04 0.02 55 1002.5
20260906013105 86 146 8.0 12.0 0.00 0.04 0.02 55 1002.1
20260906011555 86 137 8.0 13.0 0.00 0.04 0.02 54 1002.0
20260906010055 87 142 8.0 11.0 0.00 0.04 0.02 53 1002.0
20260906004558 88 133 8.0 12.0 0.00 0.04 0.02 52 1002.1
20260906003052 89 147 8.0 13.0 0.00 0.04 0.02 50 1001.9
20260906001553 89 155 11.0 14.0 0.00 0.04 0.02 50 1001.9
20260905234608 90 147 9.0 15.0 0.00 0.04 0.02 49 1001.9
20260905233050 90 146 10.0 15.0 0.00 0.04 0.02 49 1002.0
20260905231550 90 150 9.0 16.0 0.00 0.04 0.02 49 1002.1
20260905230054 90 166 12.0 18.0 0.00 0.04 0.02 48 1002.0
20260905224551 91 152 12.0 19.0 0.00 0.04 0.02 47 1002.0
20260905223051 92 196 11.0 19.0 0.00 0.04 0.02 44 1001.7
20260905221551 93 146 15.0 22.0 0.00 0.04 0.02 44 1001.8
20260905220045 94 177 15.0 22.0 0.00 0.04 0.02 45 1001.8
20260905214542 93 168 15.0 22.0 0.00 0.04 0.02 46 1002.0
20260905213039 93 179 13.0 20.0 0.00 0.04 0.02 47 1002.1
20260905211539 93 159 14.0 21.0 0.00 0.04 0.02 46 1002.4
20260905210046 92 165 13.0 20.0 0.00 0.04 0.02 50 1002.5
20260905204535 92 160 15.0 21.0 0.00 0.04 0.02 50 1002.8
20260905203027 91 167 13.0 20.0 0.00 0.04 0.02 51 1003.2